Wind_Speed
12 5 5 10 9 12 14 13 9 2 4 2 3 4 7 8 6 3 2 1 0 2 1 1 0 1 3 7 10 12 17 17 17 17 19 19 19 19 19 18 18 18 16 15
13 7 8 10 11 11 14 14 8 13 10 6 7 5 8 9 7 5 3 2 3 2 1 1 3 4 3 1 2 8 13 15 16 16 16 18 19 19 19 20 19 18 18 18
14 10 9 13 14 13 13 12 14 14 10 8 8 10 10 9 7 5 2 1 3 3 3 2 3 1 4 4 2 2 7 11 12 14 16 17 19 20 21 20 19 19 18 18
12 7 15 12 3 6 12 14 13 12 2 8 9 11 9 6 6 5 3 1 0 1 2 2 1 1 3 6 8 6 3 4 9 12 15 15 17 19 20 20 21 21 19 18
11 12 10 6 7 8 11 15 14 16 7 9 11 12 8 8 4 4 3 3 2 1 1 3 4 3 4 4 4 6 8 8 7 8 9 13 16 17 18 19 19 20 19 18
9 15 17 10 2 5 6 13 17 11 13 13 13 11 8 9 7 5 4 4 3 2 1 3 4 6 5 8 7 6 6 6 9 11 12 11 10 12 14 12 11 9 11 12
14 10 11 3 6 6 9 3 4 11 13 14 13 4 14 11 8 7 6 5 3 1 2 3 4 6 7 8 9 5 4 6 7 11 14 17 16 19 17 15 13 13 11 12
16 14 15 9 10 11 3 5 8 9 11 12 9 10 11 10 9 8 8 6 3 1 1 2 3 5 5 6 3 2 1 2 5 7 11 14 15 17 15 21 23 22 20 18
7 12 5 14 14 12 5 6 8 10 11 13 12 11 11 9 9 7 6 5 3 1 0 1 3 3 3 3 2 2 3 3 3 2 3 6 7 9 15 19 20 20 20 22
6 7 5 6 8 8 8 7 7 7 11 12 11 10 9 8 8 7 8 7 5 3 1 3 3 3 2 2 3 4 6 4 4 7 7 6 7 7 9 9 12 16 18 18
13 14 4 5 13 11 9 7 6 5 7 8 6 7 6 7 7 8 9 8 7 5 2 1 2 2 2 1 1 3 6 8 8 7 11 12 12 14 12 11 11 14 17 20
13 14 11 8 12 7 10 9 7 7 6 4 4 4 5 6 9 10 11 10 9 7 4 2 1 1 1 0 1 5 8 8 8 10 11 11 13 14 10 9 9 9 13 12
5 10 7 6 10 9 8 7 6 5 3 4 3 4 8 6 8 10 11 11 11 10 7 4 2 2 1 1 3 5 8 11 10 11 14 11 12 15 16 13 12 12 9 9
5 0 5 11 11 10 10 9 6 6 6 6 5 5 6 7 8 11 12 11 10 8 7 5 4 3 2 1 3 5 7 10 10 11 12 15 13 11 13 11 11 10 11 13
6 2 8 2 5 9 8 7 6 5 5 5 5 6 7 7 8 8 9 10 10 10 7 6 5 6 4 4 4 6 7 8 8 7 10 12 12 10 9 10 10 14 15 16
5 6 6 5 3 6 7 6 5 5 6 5 5 6 7 6 6 7 9 11 11 9 7 5 4 5 6 7 6 7 6 9 8 10 12 9 15 13 10 12 14 13 13 13
14 11 7 4 4 8 12 7 5 4 6 7 7 8 7 7 7 9 8 8 9 8 7 6 5 6 6 8 9 8 8 10 11 10 10 11 12 13 13 14 13 14 14 14
14 12 10 6 5 5 8 7 6 7 8 9 10 10 10 10 8 9 9 10 8 7 8 7 8 9 8 8 7 8 9 11 11 11 12 11 12 12 13 12 14 13 14 13
12 10 9 9 9 5 6 8 8 8 10 11 11 11 10 10 10 11 11 10 9 8 9 9 11 11 10 9 10 9 10 12 11 11 10 11 12 12 12 12 13 12 14 16
13 16 15 13 12 10 7 6 8 10 12 13 13 12 12 12 11 11 11 11 9 7 7 11 12 12 11 10 12 10 9 10 10 10 11 11 11 11 11 10 12 12 13 15
7 11 14 13 13 13 12 9 10 12 14 15 15 15 15 13 13 13 11 10 12 9 8 11 13 13 12 12 13 10 11 12 12 10 11 11 11 12 12 12 12 12 12 12
4 4 9 11 11 12 13 13 14 13 14 14 13 15 15 14 13 12 9 7 10 14 13 14 15 14 12 15 13 12 11 13 12 12 14 12 11 11 11 13 15 15 15 15
9 5 1 5 9 11 12 13 14 13 13 14 15 17 17 15 14 11 8 13 10 16 16 14 14 14 15 14 15 13 12 13 15 15 15 14 13 13 13 13 14 15 15 15
12 11 6 2 4 9 11 13 11 10 9 12 13 14 15 13 12 11 8 8 16 16 19 14 14 16 18 15 16 16 14 14 14 15 15 12 13 13 12 12 16 16 16 16
13 11 6 3 3 6 10 11 11 11 11 11 12 13 14 12 11 10 12 12 15 19 19 16 15 18 20 17 15 17 18 17 16 16 17 17 17 18 17 16 15 17 19 19
12 9 7 5 3 4 10 12 11 12 12 12 14 14 14 12 12 9 12 13 15 19 19 17 18 19 21 20 18 18 18 18 18 18 18 18 18 18 19 19 20 19 19 19
6 3 6 4 2 2 6 9 10 10 12 13 13 14 14 15 14 14 13 14 16 17 18 18 20 22 24 24 23 21 20 20 20 19 19 20 20 19 20 20 19 18 18 18
Wind_Direction
255 286 259 278 267 213 229 253 267 278 230 281 98 202 199 207 190 195 183 210 300 328 89 330 153 181 265 263 242 231 230 225 227 230 232 229 225 221 221 219 222 224 224 228
241 218 241 250 243 229 228 249 246 271 267 300 125 160 174 183 200 210 211 267 305 311 338 313 19 53 57 52 299 226 218 222 228 227 229 227 225 223 217 218 218 219 224 227
240 202 230 243 239 229 236 229 243 254 260 136 164 161 169 175 188 197 208 332 321 325 311 248 231 71 315 308 330 287 228 217 220 226 229 226 224 222 221 220 220 220 222 225
253 169 230 248 64 269 257 253 248 250 216 200 182 154 155 165 161 161 164 159 120 300 301 284 259 290 322 312 301 279 296 217 220 222 229 227 224 220 219 219 218 218 220 221
243 225 236 206 209 231 243 259 250 241 181 187 162 153 154 160 157 134 132 127 109 35 242 244 260 235 270 285 288 262 249 246 241 226 233 227 223 223 222 217 217 216 215 213
200 242 239 244 202 198 272 265 246 227 172 175 171 196 146 156 155 151 141 127 129 117 200 260 254 264 258 267 273 273 255 258 263 250 247 234 227 207 196 197 187 184 196 189
215 230 241 126 155 167 223 38 133 185 171 174 189 51 126 145 152 147 143 143 137 135 321 326 295 286 268 254 260 285 270 290 272 270 244 237 233 236 235 208 198 193 182 179
232 218 234 145 161 212 50 100 143 160 161 167 130 136 142 153 152 153 151 156 175 179 7 345 314 295 292 259 246 260 263 346 327 262 241 241 238 235 213 219 202 182 172 166
257 225 131 181 216 205 240 168 168 163 162 160 161 160 162 159 160 164 169 169 187 219 249 348 315 311 296 287 304 173 119 72 57 45 248 230 224 206 181 181 175 168 161 157
290 199 203 214 209 210 203 186 181 176 162 171 174 165 163 167 172 176 183 191 194 205 287 332 315 294 298 292 273 204 162 136 127 105 92 104 119 127 145 138 138 141 141 137
272 276 274 223 222 201 183 156 163 146 162 184 189 176 179 179 187 191 189 195 199 209 229 330 318 296 304 313 291 177 163 153 144 126 123 120 106 113 116 125 143 148 151 147
230 279 234 232 198 208 182 167 162 164 156 167 203 220 196 199 196 200 194 195 199 205 207 243 275 225 290 71 137 153 145 147 141 135 129 134 126 112 116 115 139 154 154 153
268 308 265 180 186 186 157 153 140 148 141 178 156 192 193 197 196 194 197 201 204 201 200 200 228 224 151 173 155 170 165 151 143 139 134 134 136 126 117 117 136 140 144 156
0 64 213 176 159 144 138 120 127 113 118 127 131 149 163 174 166 192 203 206 209 203 196 206 216 190 155 147 148 143 148 162 156 150 155 146 132 137 133 136 124 106 131 139
267 304 299 5 133 152 142 143 167 168 160 150 158 164 175 178 181 193 197 200 200 201 204 219 221 199 172 149 169 154 153 145 154 161 158 153 140 142 144 138 134 131 130 134
254 264 291 253 233 193 178 168 191 190 188 166 178 176 177 180 179 183 181 182 187 204 201 211 218 200 188 151 153 145 138 143 154 150 145 144 144 133 140 136 135 138 140 142
255 264 262 272 261 210 205 199 195 179 187 195 190 178 185 185 183 181 185 183 183 186 187 200 191 174 175 166 161 156 150 147 153 151 154 151 145 155 157 151 154 156 145 156
256 261 262 250 264 224 206 205 197 186 193 192 183 183 186 179 174 166 170 171 172 183 185 185 181 175 165 160 174 169 160 152 158 154 149 157 153 153 151 152 158 159 147 156
233 248 237 243 243 270 251 214 197 190 184 179 185 191 183 180 171 169 172 180 186 194 200 189 188 185 184 186 179 171 161 159 153 150 150 142 156 155 155 160 160 159 154 159
236 235 237 244 249 246 230 208 200 190 187 180 184 184 181 181 178 176 182 198 206 212 171 183 179 186 186 190 179 191 180 179 171 165 161 166 156 157 160 165 161 163 170 175
264 233 226 225 234 232 220 215 208 191 187 184 188 190 188 185 185 180 184 210 196 189 195 179 187 189 189 181 191 198 180 181 182 180 175 194 175 186 183 181 184 180 180 180
340 254 216 219 221 220 217 210 191 183 182 185 193 191 186 186 192 195 205 225 187 192 193 190 195 200 202 191 205 209 201 196 197 185 184 188 182 194 191 198 199 198 197 196
23 35 123 203 211 212 196 186 177 179 182 189 191 190 190 192 196 198 203 208 210 188 199 197 198 203 209 208 213 216 203 197 202 199 199 198 198 200 201 202 206 208 206 210
10 28 39 102 149 158 168 172 168 169 180 188 190 189 190 202 204 218 221 185 195 191 204 204 198 210 204 209 217 217 217 205 210 210 213 221 226 225 222 220 219 221 218 218
353 343 17 57 169 181 173 166 166 169 174 187 185 190 198 212 222 202 212 198 195 197 203 210 212 207 198 211 211 214 216 222 225 228 232 233 232 233 239 241 234 222 226 228
343 326 328 340 322 216 191 177 196 184 189 194 192 197 201 202 205 202 199 210 198 202 212 206 204 202 207 216 218 217 219 222 224 227 234 237 234 236 237 236 233 228 231 235
314 336 323 283 180 200 220 204 219 204 204 205 203 204 204 201 202 205 204 201 210 204 214 218 209 210 218 225 225 230 229 231 232 234 234 233 240 238 234 232 230 230 228 230
Height
738 743 747 751 753 758 763 756 768 755 762 752 756 757 759 761 765 767 768 770 771 773 780 782 782 783 785 786 785 787 788 789 792 796 799 801 804 807 811 813 815 817 820 822
751 746 750 758 751 752 754 753 757 756 758 737 748 754 758 762 764 766 767 769 771 773 776 779 779 781 782 784 782 783 785 785 789 791 794 796 800 803 806 808 811 813 815 816
761 746 755 769 752 749 748 746 750 762 747 746 755 757 758 760 763 766 767 769 771 773 775 778 779 779 781 784 783 782 781 782 785 788 791 793 795 798 801 803 806 808 810 812
758 756 788 744 731 734 741 739 737 742 743 748 748 750 754 755 758 764 767 770 772 773 775 777 779 779 779 779 780 781 780 781 783 786 788 789 791 792 794 797 799 802 804 806
760 762 748 744 740 746 749 748 732 737 739 746 746 751 759 757 758 762 765 769 772 774 776 778 778 779 780 779 780 781 779 781 783 784 785 785 786 787 789 791 793 796 798 800
756 768 768 735 723 725 733 758 726 728 738 746 748 758 754 757 760 763 766 769 772 774 776 777 778 779 778 779 779 779 779 780 780 781 781 781 782 783 784 787 790 791 793 795
747 757 741 724 727 729 766 750 722 726 733 740 747 746 747 755 760 763 766 770 773 774 775 776 777 777 776 777 778 777 778 777 775 776 778 779 780 782 782 785 787 790 793 794
741 754 762 721 733 747 731 724 725 729 734 739 745 750 753 756 759 763 766 769 772 773 774 776 777 777 776 775 776 776 776 775 773 774 776 776 775 777 777 780 783 786 788 791
736 736 724 718 720 720 719 725 726 728 733 738 746 749 752 755 758 761 765 768 770 771 773 775 776 775 775 775 776 776 776 777 776 774 774 775 775 773 775 778 780 782 784 788
742 722 724 724 719 718 720 720 723 725 732 736 741 744 748 751 756 760 764 767 769 771 771 773 775 775 775 775 775 775 777 778 778 776 777 778 776 776 778 779 781 781 784 788
738 726 728 724 722 720 723 724 726 729 731 735 737 742 746 751 755 758 762 766 768 769 770 772 773 775 776 775 774 775 776 777 778 778 778 780 781 779 782 783 784 786 788 790
737 721 721 718 720 723 723 725 726 729 734 738 741 744 748 750 754 757 760 764 767 769 769 771 772 774 775 775 774 775 775 776 778 779 779 781 782 783 785 787 788 790 794 795
727 727 718 713 717 723 722 725 728 731 735 738 742 744 747 749 753 756 759 762 764 766 768 770 771 772 774 775 775 775 775 775 778 779 779 782 785 785 787 791 792 793 796 797
725 724 725 718 721 720 723 728 732 734 738 741 743 746 748 750 754 756 757 760 763 765 767 769 770 771 773 775 775 776 776 776 778 780 781 783 785 790 790 793 795 797 798 799
724 723 722 720 719 721 723 727 731 733 737 740 743 745 748 749 751 754 756 758 761 763 766 769 769 771 772 773 775 776 777 778 780 781 782 783 784 790 793 795 797 798 801 804
721 722 722 721 722 722 724 727 729 731 735 738 741 744 745 747 749 752 755 758 760 762 766 768 770 771 772 772 775 776 777 776 780 781 784 787 786 789 794 796 798 801 804 806
723 723 721 721 722 722 724 724 728 730 734 738 740 742 745 746 748 751 754 757 759 762 765 768 769 771 773 773 775 776 778 779 782 784 786 787 788 790 792 796 799 799 801 806
716 717 717 717 720 720 721 724 728 730 733 736 739 741 743 745 746 750 753 757 760 762 765 767 769 772 773 774 774 775 776 778 779 781 784 786 787 788 789 793 797 798 801 806
715 715 717 718 719 719 720 721 723 728 732 734 737 739 742 744 746 749 753 756 758 761 763 766 769 772 773 775 776 775 776 778 780 782 784 787 788 789 790 793 795 797 799 805
710 711 713 714 716 717 718 720 722 725 729 732 735 738 741 743 747 749 752 754 755 757 760 764 767 770 772 773 774 774 775 777 779 781 783 784 786 788 791 793 793 796 800 803
704 704 705 708 711 712 715 718 720 723 726 729 733 736 738 742 745 748 751 751 754 757 760 762 765 767 770 772 774 772 773 775 778 780 783 784 785 786 789 791 794 795 799 801
702 700 699 702 705 708 712 714 717 721 724 727 731 734 737 740 744 746 747 747 749 755 757 759 762 764 766 770 770 769 770 773 775 777 780 781 782 784 786 789 791 793 795 797
704 702 701 701 702 705 709 713 716 719 722 725 728 731 734 735 738 740 743 747 747 751 754 755 758 762 766 768 768 767 769 771 773 774 776 778 779 781 783 786 787 789 790 792
706 704 704 704 704 706 709 712 714 718 722 725 727 729 731 733 735 737 738 740 745 749 752 752 756 760 763 766 767 767 767 769 771 772 773 776 776 777 779 781 783 784 786 789
709 707 705 705 706 705 708 712 714 717 720 722 725 727 729 730 731 732 736 739 743 747 749 751 754 757 761 762 763 765 766 768 769 770 771 772 773 775 776 777 777 779 781 782
712 710 707 707 705 704 705 709 709 711 715 717 720 723 725 727 729 732 734 736 739 742 744 746 750 753 756 757 758 759 761 763 765 766 767 767 767 769 770 771 772 773 775 776
711 711 708 705 703 705 704 705 704 706 711 711 714 717 719 723 725 728 730 732 734 737 739 740 743 747 749 750 751 753 754 755 756 757 759 761 762 762 764 765 766 768 769 770